KE2BQW Weather Reports


Display with metric or nautical units.
time (UTC)temp
F
wind
direction
speed
MPH
gust
MPH
rain 1hr
in
rain 24hr
in
rain mn
in
humidity
%
barometer
mb
20260503034536 42 0.0 0.0 0.00 0.00 0.00 62 1016.0
20260503033515 42 0.0 0.0 0.00 0.00 0.00 62 1016.1
20260503032516 42 0.0 0.0 0.00 0.00 0.00 62 1016.1
20260503031516 43 0.0 0.0 0.00 0.00 0.00 62 1016.1
20260503030536 43 0.0 0.0 0.00 0.00 0.00 62 1016.2
20260503025516 43 0.0 0.0 0.00 0.00 0.00 61 1016.2
20260503024516 43 0.0 0.0 0.00 0.00 0.00 61 1016.2
20260503023536 43 0.0 0.0 0.00 0.00 0.00 61 1016.2
20260503022516 43 0.0 0.0 0.00 0.00 0.00 61 1016.4
20260503021536 43 0.0 0.0 0.00 0.00 0.00 61 1016.4
20260503020536 43 0.0 0.0 0.00 0.00 0.00 61 1016.4
20260503015516 43 0.0 0.0 0.00 0.00 0.00 61 1016.4
20260503014516 43 0.0 0.0 0.00 0.00 0.00 61 1016.3
20260503013517 43 0.0 0.0 0.00 0.00 0.00 61 1016.3
20260503012516 43 0.0 0.0 0.00 0.00 0.00 61 1016.3
20260503011515 43 0.0 0.0 0.00 0.00 0.00 61 1016.3
20260503010516 43 0.0 0.0 0.00 0.00 0.00 61 1016.2
20260503005517 43 0.0 0.0 0.00 0.00 0.00 61 1016.1
20260503004515 43 0.0 0.0 0.00 0.00 0.00 60 1016.0
20260503003517 43 0.0 0.0 0.00 0.00 0.00 60 1015.8
20260503002515 43 0.0 0.0 0.00 0.00 0.00 60 1015.8
20260503001557 43 0.0 0.0 0.00 0.00 0.00 60 1015.7
20260503000516 43 0.0 0.0 0.00 0.00 0.00 59 1015.7
20260502235516 43 0.0 0.0 0.00 0.00 0.00 59 1015.6
20260502234517 43 0.0 0.0 0.00 0.00 0.00 59 1015.6
20260502233516 44 0.0 0.0 0.00 0.00 0.00 58 1015.5
20260502232516 44 0.0 0.0 0.00 0.00 0.00 58 1015.5
20260502231515 44 0.0 0.0 0.00 0.00 0.00 58 1015.3
20260502230537 44 0.0 0.0 0.00 0.00 0.00 57 1015.4
20260502225515 44 0.0 0.0 0.00 0.00 0.00 57 1015.3
20260502224535 45 0.0 0.0 0.00 0.00 0.00 55 1015.3
20260502223516 46 0.0 0.0 0.00 0.00 0.00 53 1015.2
20260502222515 46 0.0 0.0 0.00 0.00 0.00 53 1015.1
20260502221516 46 0.0 0.0 0.00 0.01 0.00 53 1015.1
20260502220516 46 0.0 0.0 0.00 0.01 0.00 54 1015.2
20260502215536 46 0.0 0.0 0.00 0.01 0.00 55 1015.1
20260502214516 46 0.0 0.0 0.00 0.02 0.00 56 1015.1
20260502213517 45 0.0 0.0 0.00 0.02 0.00 56 1015.0
20260502212516 45 0.0 0.0 0.00 0.02 0.00 57 1015.0
20260502211516 45 0.0 0.0 0.00 0.02 0.00 57 1015.0
20260502210516 46 0.0 0.0 0.00 0.02 0.00 56 1015.0
20260502205517 46 0.0 0.0 0.00 0.02 0.00 54 1014.9
20260502204515 46 0.0 0.0 0.00 0.02 0.00 54 1014.9
20260502203516 46 0.0 0.0 0.00 0.02 0.00 55 1014.9
20260502202515 46 0.0 0.0 0.00 0.03 0.00 56 1014.8
20260502201516 46 0.0 0.0 0.00 0.03 0.00 57 1015.0
20260502200536 46 0.0 0.0 0.00 0.03 0.00 56 1015.1
20260502195516 46 0.0 0.0 0.00 0.03 0.00 55 1015.2
20260502194515 46 0.0 0.0 0.00 0.03 0.00 55 1015.1
20260502193516 46 0.0 0.0 0.00 0.03 0.00 54 1015.1
20260502192515 46 0.0 0.0 0.00 0.03 0.00 54 1015.2
20260502191536 46 0.0 0.0 0.00 0.03 0.00 54 1015.2
20260502190516 46 0.0 0.0 0.00 0.03 0.00 53 1015.2
20260502185516 47 0.0 0.0 0.00 0.03 0.00 51 1015.1
20260502184536 47 0.0 0.0 0.00 0.03 0.00 51 1015.1
20260502183515 47 0.0 0.0 0.00 0.03 0.00 50 1015.1
20260502182537 47 0.0 0.0 0.00 0.03 0.00 49 1015.0
20260502181515 47 0.0 0.0 0.00 0.03 0.00 48 1014.9
20260502180536 47 0.0 0.0 0.00 0.03 0.00 48 1014.9
20260502163516 48 0.0 0.0 0.00 0.03 0.00 43 1014.9
20260502162517 47 0.0 0.0 0.00 0.03 0.00 44 1014.9
20260502161536 47 0.0 0.0 0.00 0.03 0.00 45 1015.0
20260502160516 47 0.0 0.0 0.00 0.03 0.00 45 1014.9
20260502151516 46 0.0 0.0 0.00 0.03 0.00 50 1015.1
20260502150535 46 0.0 0.0 0.00 0.03 0.00 52 1015.2
20260502130516 42 0.0 0.0 0.00 0.03 0.00 71 1016.2
20260502123515 40 0.0 0.0 0.00 0.03 0.00 75 1016.4
20260502122517 40 0.0 0.0 0.00 0.03 0.00 76 1016.4
20260502121516 40 0.0 0.0 0.00 0.03 0.00 77 1016.5
20260502120535 39 0.0 0.0 0.00 0.03 0.00 78 1016.4
20260502115537 39 0.0 0.0 0.00 0.03 0.00 78 1016.4
20260502114517 39 0.0 0.0 0.00 0.03 0.00 79 1016.4
20260502113516 38 0.0 0.0 0.00 0.03 0.00 80 1017.1
20260502112516 38 0.0 0.0 0.00 0.03 0.00 80 1017.2
20260502111515 37 0.0 0.0 0.00 0.03 0.00 80 1017.1
20260502110516 37 0.0 0.0 0.00 0.03 0.00 80 1017.1
20260502105516 37 0.0 0.0 0.00 0.03 0.00 80 1016.9
20260502104515 37 0.0 0.0 0.00 0.03 0.00 80 1016.8
20260502103516 37 0.0 0.0 0.00 0.03 0.00 80 1016.8
20260502102536 37 0.0 0.0 0.00 0.03 0.00 80 1016.7
20260502101516 37 0.0 0.0 0.00 0.03 0.00 79 1016.6
20260502100536 37 0.0 0.0 0.00 0.03 0.00 79 1016.5
20260502091516 38 0.0 0.0 0.00 0.03 0.00 78 1016.1
20260502090515 38 0.0 0.0 0.00 0.03 0.00 78 1016.1
20260502071516 41 0.0 0.0 0.00 0.03 0.00 82 1014.9
20260502070516 41 0.0 0.0 0.00 0.03 0.00 83 1014.7
20260502065517 42 0.0 0.0 0.00 0.03 0.00 84 1014.8
20260502064517 42 0.0 0.0 0.00 0.03 0.00 84 1014.7
20260502063515 42 0.0 0.0 0.00 0.03 0.00 85 1014.7
20260502062515 42 0.0 0.0 0.00 0.03 0.00 86 1014.9
20260502061516 42 0.0 0.0 0.00 0.03 0.00 86 1014.8
20260502060517 42 0.0 0.0 0.00 0.03 0.00 86 1014.9
20260502055517 42 0.0 0.0 0.00 0.03 0.00 86 1014.9
20260502054535 42 0.0 0.0 0.00 0.03 0.00 86 1014.9
20260502053516 42 0.0 0.0 0.00 0.03 0.00 86 1014.9
20260502052515 42 0.0 0.0 0.00 0.03 0.00 86 1014.9
20260502051516 42 0.0 0.0 0.00 0.03 0.00 87 1014.9
20260502050516 42 0.0 0.0 0.00 0.03 0.00 87 1015.0
20260502045516 42 0.0 0.0 0.00 0.03 0.00 88 1014.9
20260502044517 42 0.0 0.0 0.00 0.03 0.00 88 1014.8
20260502043515 43 0.0 0.0 0.00 0.03 0.00 88 1014.8
20260502042515 43 0.0 0.0 0.00 0.03 0.00 88 1014.8
20260502041517 43 0.0 0.0 0.00 0.03 0.00 89 1014.8
20260502040556 43 0.0 0.0 0.00 0.03 0.00 89 1014.8
20260502035515 43 0.0 0.0 0.00 0.03 0.03 89 1014.8